Wind_Speed
12 15 15 14 15 13 12 12 11 10 9 8 8 8 8 8 8 7 8 8 8 10 11 13 13 14 15 16 16 16 17 17 17 18 18 18 18 18 18 17 17 17 16 16 15 14 13 12 11 10 10 10 10 9 9 8 8 8 9 9 9 9 9 9 9 10 10 9 9 9 10 9 9 8 7 7 6 6 7 8 10 12 12 13 13
12 14 15 15 15 14 13 12 11 11 10 8 8 8 8 7 7 6 6 6 7 8 10 11 12 12 13 14 14 15 15 16 16 16 17 17 17 17 17 17 17 17 16 16 16 15 14 13 12 11 10 10 10 10 10 9 9 9 9 9 9 9 9 9 9 9 9 9 8 8 9 9 8 8 7 7 6 7 8 9 10 12 12 12 13
16 15 16 15 15 15 14 13 12 11 10 9 8 7 7 7 6 5 5 5 5 7 8 9 10 11 11 12 13 13 14 14 15 15 16 16 16 16 17 17 17 16 16 16 16 15 14 13 12 11 11 10 10 11 11 11 10 10 9 9 9 9 8 8 8 8 8 8 7 7 8 10 9 8 8 8 8 9 10 11 11 12 12 13 13
16 17 17 16 16 16 15 14 13 12 11 10 9 8 7 7 6 5 4 3 3 5 6 7 8 9 9 10 11 12 12 13 14 14 14 15 15 16 16 16 16 16 15 15 15 15 14 14 13 12 12 11 11 11 11 11 10 10 9 9 8 8 8 8 7 7 7 7 7 6 8 11 11 11 11 11 11 11 11 12 12 13 12 12 13
12 17 18 18 16 16 16 15 14 13 12 11 10 9 8 7 6 5 4 2 2 3 4 5 6 7 8 9 10 10 11 11 12 12 13 14 14 15 15 15 15 15 15 15 15 15 15 14 14 13 13 12 12 12 11 11 10 10 9 9 9 8 9 9 9 8 7 7 8 9 11 14 15 13 13 13 13 12 12 12 12 12 12 12 12
11 16 19 19 18 16 17 16 15 14 13 12 10 10 8 7 6 5 4 2 1 1 2 3 4 5 6 7 8 9 10 10 10 11 12 12 13 13 14 14 14 15 15 15 15 15 15 15 14 14 14 14 14 14 14 13 13 12 11 11 10 10 11 11 10 9 8 8 9 11 13 16 16 15 14 14 13 13 12 12 12 11 11 11 11
11 16 19 20 19 17 17 16 15 15 14 13 12 10 9 8 7 6 5 3 2 1 1 2 3 4 5 6 7 8 8 9 9 9 10 11 12 12 13 13 14 14 14 14 15 15 15 15 15 15 15 15 15 15 15 14 14 14 13 13 12 12 12 11 10 9 10 10 11 12 14 16 15 14 13 13 13 12 11 11 11 10 10 10 10
12 15 19 20 21 19 17 17 16 16 15 14 13 11 10 9 8 6 5 4 3 2 1 2 2 3 4 5 6 7 8 8 8 8 9 10 10 11 12 12 13 13 14 14 14 14 15 15 15 14 14 14 14 15 15 14 14 14 13 13 13 12 11 10 9 9 10 12 13 13 14 15 13 12 12 11 11 11 10 10 9 9 9 9 9
14 15 19 22 21 20 18 18 17 17 16 15 14 12 11 10 9 8 6 5 4 3 2 2 2 3 3 4 5 6 6 7 7 7 8 9 9 10 10 11 12 13 13 13 14 14 15 15 14 14 14 14 14 14 14 14 14 13 13 13 13 12 11 10 9 10 10 12 14 14 15 14 12 11 10 10 9 9 9 8 8 7 7 7 7
14 16 20 22 22 22 20 19 18 18 17 15 14 13 12 11 10 8 7 6 5 4 3 3 3 3 3 4 5 5 6 6 6 6 7 7 8 9 9 10 11 12 12 13 13 14 14 14 14 13 13 13 14 14 14 14 14 13 14 14 13 12 10 9 8 8 9 13 15 14 14 12 11 10 9 9 8 7 7 7 6 6 6 6 6
14 16 20 23 23 23 21 21 20 19 17 16 15 14 13 12 11 9 8 7 5 4 3 3 2 2 3 3 4 5 5 6 6 6 6 7 7 8 8 9 10 10 11 12 13 13 13 13 13 12 13 13 13 13 13 13 13 13 14 14 13 12 10 9 8 8 10 13 14 13 12 11 10 10 9 8 8 7 7 7 6 6 6 6 6
15 16 20 23 25 25 23 22 21 20 18 17 16 15 14 13 12 10 9 7 6 5 4 3 3 2 2 3 4 4 5 5 5 5 5 6 6 7 7 8 8 9 10 11 12 12 12 12 12 12 12 12 12 12 12 12 12 13 13 12 12 11 9 8 7 8 10 12 12 11 10 9 9 8 8 7 7 7 7 7 6 6 6 6 6
15 17 20 24 26 26 25 23 22 21 19 18 17 16 15 14 13 11 10 8 7 5 4 3 3 1 2 3 3 4 4 5 4 4 4 5 5 6 6 7 7 8 9 10 11 11 11 11 11 11 11 11 11 11 11 11 11 11 11 10 10 9 8 8 8 7 9 11 9 8 7 7 6 5 5 5 5 5 6 6 6 7 7 7 7
18 18 20 24 27 27 26 24 23 22 21 19 18 16 15 14 13 12 10 9 7 6 5 4 2 1 1 2 3 3 4 4 4 3 4 4 4 5 5 5 6 7 8 8 9 10 10 10 10 10 10 10 9 9 9 9 9 9 9 9 9 9 8 8 8 6 7 8 6 6 5 5 4 3 3 3 4 4 5 6 7 7 8 8 8
19 17 20 24 27 28 27 26 24 23 21 20 18 17 16 15 13 12 11 9 8 6 5 4 3 1 1 1 2 2 3 3 3 3 3 3 3 4 4 4 5 5 6 6 7 8 8 8 8 8 8 8 8 8 8 8 8 8 8 8 8 8 8 8 8 7 7 6 5 5 4 4 3 3 4 4 5 5 6 7 8 9 10 10 10
21 19 21 23 27 29 28 26 25 23 22 20 19 17 16 15 14 12 11 10 8 7 6 5 3 2 0 1 1 1 2 2 2 2 2 2 3 3 3 4 4 4 4 5 5 5 6 6 6 7 6 6 6 6 6 6 6 6 6 6 7 7 7 8 8 8 7 5 5 5 4 4 4 4 5 5 6 7 7 8 9 10 11 11 12
22 21 21 23 28 30 29 27 26 24 22 21 19 18 16 15 14 13 12 10 9 8 7 5 4 2 1 0 0 0 1 1 1 1 1 2 2 2 3 3 3 3 3 3 3 3 3 4 4 4 4 4 4 4 4 4 4 5 5 5 6 6 6 7 8 8 7 5 5 5 5 5 5 5 6 6 7 8 8 9 9 10 11 12 13
24 23 20 22 28 29 29 28 26 25 22 21 19 18 17 16 14 13 12 10 9 8 7 6 5 3 2 1 1 1 1 1 1 1 1 2 3 3 2 2 2 2 2 2 2 2 2 2 2 2 2 2 2 2 2 3 4 4 5 5 6 7 8 8 9 8 7 7 6 6 6 7 7 7 8 8 8 9 9 10 10 11 11 12 13
24 21 19 22 27 29 28 28 26 24 22 20 19 18 17 16 14 13 12 11 9 9 8 7 5 4 3 2 2 1 1 1 1 1 1 1 3 3 3 3 2 2 2 2 2 2 2 2 2 1 1 2 3 3 3 3 4 5 6 6 7 8 9 9 10 9 8 9 8 7 8 8 8 9 9 9 10 10 11 11 12 12 12 13 13
22 18 17 22 27 28 28 27 26 23 21 20 19 18 18 17 15 13 12 11 10 9 9 7 6 5 4 3 2 2 1 1 1 1 1 1 3 4 4 4 4 3 3 3 3 3 4 4 4 3 3 3 4 5 5 6 6 6 7 8 9 10 11 12 13 12 10 10 9 10 10 9 9 10 11 11 11 12 12 12 13 13 13 13 14
21 18 19 23 26 28 27 26 24 22 21 20 20 20 19 17 15 13 12 11 10 10 9 8 7 6 5 4 3 2 2 2 2 2 2 2 3 4 5 6 5 5 5 4 4 5 5 5 5 5 5 5 6 6 7 8 8 9 10 10 11 11 12 14 16 16 13 11 10 11 12 11 12 12 13 13 12 13 13 13 13 13 14 14 14
21 20 21 24 26 27 26 24 23 21 21 21 21 20 19 17 15 13 12 11 11 10 9 8 7 7 6 4 3 3 3 3 3 2 3 3 3 4 5 6 6 7 7 7 7 7 7 6 6 6 6 7 7 7 8 9 10 11 12 12 12 12 12 13 16 18 17 14 12 11 12 13 14 14 15 15 14 14 15 15 14 14 15 15 14
21 20 22 24 25 25 24 23 22 22 22 21 21 20 19 17 15 13 12 11 11 10 9 9 8 7 6 5 4 4 3 3 3 3 3 3 3 4 4 5 6 7 8 8 9 9 9 9 8 8 8 8 8 8 9 10 11 11 12 13 13 12 12 13 15 18 19 17 15 13 14 15 15 16 16 17 16 16 17 17 17 16 16 16 15
18 18 22 23 24 24 23 23 23 22 22 22 21 20 18 16 15 13 12 11 11 10 9 9 8 8 7 6 6 5 4 3 3 4 4 4 4 4 4 5 6 6 7 9 10 10 10 10 11 11 11 10 10 10 10 11 11 12 12 12 13 13 13 13 14 17 19 18 17 15 15 16 17 17 17 18 18 19 19 19 19 19 18 18 17
16 18 22 22 22 24 23 23 23 22 22 22 21 19 18 16 14 13 12 11 10 9 8 8 8 8 7 7 7 5 4 4 4 5 5 5 5 5 4 5 5 5 6 7 9 10 10 11 11 12 12 13 13 13 12 12 12 12 13 13 13 14 14 14 13 16 18 17 17 16 16 16 17 18 18 18 19 20 21 21 21 20 20 20 19
17 19 23 23 23 23 23 23 22 22 22 21 20 19 17 15 13 12 10 10 9 8 7 7 7 7 7 8 7 6 5 4 4 5 5 5 4 4 4 4 4 4 5 6 8 8 9 10 11 11 12 13 13 14 14 14 13 12 13 13 13 13 13 14 15 17 19 18 18 18 17 18 19 19 19 19 20 20 21 22 22 21 21 21 21
18 20 22 22 22 21 21 21 21 21 20 19 18 16 15 13 12 11 10 9 8 7 6 6 5 6 6 7 6 6 5 5 5 5 4 4 3 3 3 4 3 4 4 5 6 7 7 8 9 9 10 12 12 13 14 14 14 13 13 12 11 11 11 12 14 17 19 20 19 18 18 19 19 20 20 20 20 20 21 22 22 22 22 21 22
19 19 20 20 21 20 20 19 19 18 16 15 13 13 12 11 10 9 8 7 6 6 5 5 5 6 6 6 6 5 4 5 5 5 4 3 2 2 3 3 3 3 2 2 3 4 5 5 6 7 8 9 10 11 12 12 13 12 11 11 12 12 11 10 11 14 18 20 19 18 17 17 18 19 20 21 21 21 20 21 22 23 23 22 21
20 21 21 21 21 20 19 17 17 15 13 11 10 9 8 6 6 6 5 5 5 4 4 5 6 6 5 5 4 3 3 4 5 5 4 2 1 1 2 2 2 2 0 1 1 1 2 3 3 4 6 7 8 10 10 11 11 12 12 12 12 13 12 11 11 14 16 18 19 19 17 17 18 19 19 20 21 21 21 21 22 23 24 22 20
21 21 21 21 21 18 17 15 14 12 11 10 8 6 5 4 5 5 5 4 4 4 5 5 5 4 4 4 3 2 2 3 5 4 2 1 1 1 1 1 1 2 2 3 3 3 3 4 4 5 6 8 9 10 10 11 11 12 13 14 14 14 14 13 13 14 15 17 17 18 17 18 20 21 21 21 22 22 22 22 22 22 23 22 20
20 19 19 19 18 17 15 13 12 12 10 8 6 5 5 5 6 5 4 4 4 4 5 4 4 4 3 2 1 1 2 3 3 2 0 1 1 2 2 2 2 2 3 3 4 5 5 5 6 7 8 9 10 10 11 11 11 12 13 14 15 16 17 17 16 16 16 18 18 17 17 19 21 22 23 23 22 23 23 23 22 20 20 21 20
18 17 18 15 13 14 14 13 13 12 9 7 5 5 4 5 5 4 4 4 4 4 4 4 4 4 2 2 3 3 2 3 3 2 1 1 2 3 2 2 3 3 4 4 6 6 7 7 7 8 9 10 11 11 12 12 12 12 13 13 14 16 18 19 19 18 19 19 20 19 18 19 20 21 22 22 22 23 23 23 22 20 19 19 19
17 17 14 11 11 12 12 13 14 11 7 6 5 5 5 5 4 4 4 4 4 4 5 4 4 4 4 4 4 3 4 4 4 2 2 1 2 2 2 3 4 5 6 6 7 8 8 8 8 8 9 10 11 12 12 13 13 13 13 14 14 14 17 18 19 20 20 20 20 20 20 20 20 20 21 21 22 22 22 21 21 21 19 18 19
16 13 9 7 9 10 12 13 12 9 7 6 6 6 5 5 4 4 4 4 5 5 5 5 5 5 5 5 4 4 4 5 4 3 2 0 1 2 3 4 5 7 8 8 8 8 9 9 9 9 10 10 11 12 12 13 13 13 14 14 14 15 15 17 19 20 21 20 20 21 20 20 20 20 21 21 21 21 20 20 21 21 21 20 19
11 7 5 5 9 12 12 12 10 9 8 7 6 5 4 4 4 5 4 4 4 5 5 5 5 5 5 5 6 6 6 5 4 3 2 1 2 2 3 5 8 9 9 9 9 9 9 10 10 10 11 12 13 13 13 13 13 13 14 14 15 15 16 17 18 19 21 21 21 21 20 19 19 19 19 19 20 20 20 19 20 21 21 20 20
8 4 4 7 11 13 12 11 10 9 8 7 5 4 5 5 4 3 3 4 4 5 5 4 5 6 6 6 7 7 6 6 5 3 2 1 2 2 3 5 8 9 9 9 9 9 9 10 11 11 12 12 13 13 13 12 11 11 12 12 13 14 15 16 17 18 19 20 21 21 21 20 19 19 19 18 18 19 20 19 19 20 20 20 20
8 7 8 9 10 11 11 10 10 9 9 7 5 5 6 5 3 3 3 5 6 6 5 5 6 6 6 6 5 6 6 5 4 3 1 1 3 4 4 5 7 8 9 9 9 9 10 11 12 12 12 11 11 12 12 11 10 10 10 11 11 11 12 13 14 15 16 17 18 19 19 19 18 18 18 17 16 17 18 18 19 19 19 19 20
8 6 6 6 8 10 10 10 10 11 9 8 7 7 7 5 5 6 6 6 7 6 5 6 6 6 6 6 6 6 5 4 3 2 2 3 4 5 6 7 8 8 9 9 10 10 11 12 13 13 12 11 11 12 11 11 11 11 11 10 11 10 10 10 11 12 13 14 15 15 16 17 17 16 16 16 16 16 17 17 18 19 19 19 19
9 6 5 6 8 9 9 9 10 10 8 8 8 7 6 6 7 8 8 7 7 5 5 6 7 6 6 6 6 5 4 4 4 3 2 3 4 6 7 7 8 9 9 10 10 11 12 13 13 12 12 12 12 12 12 11 11 11 11 10 10 11 11 10 10 11 12 12 12 13 14 15 16 16 15 15 16 16 16 16 17 17 18 18 18
9 7 7 7 9 9 9 9 9 9 8 6 6 7 7 7 7 8 8 7 7 6 6 7 8 7 5 4 5 4 4 4 3 2 2 4 5 7 7 8 8 8 9 10 10 11 12 13 13 12 12 13 14 14 14 12 11 11 11 11 11 10 10 10 10 10 11 12 12 12 12 13 14 15 14 15 15 15 15 15 16 16 16 17 18
10 10 10 9 9 10 11 11 9 9 8 7 7 7 7 6 6 6 7 6 7 7 7 8 8 7 5 4 4 4 4 2 1 2 4 6 7 8 8 8 8 8 9 9 10 12 12 12 12 11 11 12 13 13 13 13 12 11 10 11 12 12 10 9 9 9 10 11 11 11 11 12 13 14 14 14 14 15 15 15 16 16 16 16 17
12 12 12 10 9 11 12 10 8 8 9 9 8 8 6 6 7 7 6 7 8 9 9 8 7 7 7 5 4 4 4 2 2 4 6 7 8 8 8 7 8 8 9 9 11 11 11 11 11 11 11 11 12 13 13 13 13 12 11 10 10 11 11 10 10 10 10 10 11 10 11 12 13 14 14 13 13 14 15 15 16 17 16 16 16
15 14 13 12 11 12 12 9 8 9 9 8 8 8 7 7 8 8 7 7 9 10 10 9 8 7 7 5 5 6 5 2 3 5 6 8 8 8 7 7 8 8 9 10 11 11 11 11 10 10 11 12 13 14 14 14 13 13 13 12 10 10 12 11 11 11 11 11 12 12 12 12 13 14 14 14 13 13 14 15 15 16 16 15 16
16 15 14 14 13 12 10 7 8 9 8 8 9 8 7 8 9 10 9 9 10 11 10 10 9 8 8 7 8 7 5 3 4 6 7 7 8 7 7 7 8 8 9 10 11 11 11 11 11 11 11 12 13 15 16 16 16 15 15 15 13 12 13 12 11 11 12 12 13 13 14 14 14 14 15 16 15 14 14 14 15 16 15 15 15
14 14 15 15 14 14 11 8 8 7 8 10 10 9 8 10 11 11 11 11 12 12 11 11 10 8 8 8 7 5 3 4 5 6 7 7 7 7 7 7 8 8 9 10 11 11 11 11 12 12 12 12 13 15 16 18 18 18 18 19 18 17 16 16 14 11 11 13 14 14 14 15 15 15 16 17 18 17 15 14 15 16 16 15 14
13 13 14 14 14 14 12 11 10 8 9 12 11 10 11 11 12 12 13 13 13 13 13 12 10 8 7 6 4 2 2 4 6 7 7 6 6 7 7 8 9 9 9 10 10 11 11 12 13 14 15 15 15 15 16 18 20 20 20 21 21 22 21 21 20 16 13 13 14 16 16 16 17 16 17 18 18 18 17 15 15 16 16 16 15
12 14 14 13 12 12 12 11 10 10 11 12 11 10 11 11 12 13 14 13 13 13 13 12 9 6 5 4 3 2 3 4 6 6 6 6 6 7 7 8 9 9 10 10 10 12 13 13 14 15 16 17 17 17 16 17 19 20 21 21 22 23 24 24 25 24 20 15 14 17 18 18 18 18 19 20 20 19 18 16 16 17 17 17 16
13 14 14 12 11 12 11 10 10 11 12 12 12 12 11 11 13 14 14 13 12 12 11 9 7 6 5 4 3 2 3 4 5 5 5 6 6 7 7 8 9 10 11 11 11 13 14 15 16 16 17 18 18 18 18 18 18 19 20 22 22 23 25 26 27 28 27 24 19 17 18 19 20 21 21 21 21 21 20 18 18 18 18 18 17
15 15 14 13 12 12 12 11 11 12 12 13 14 14 13 13 15 15 14 13 13 12 10 9 7 6 5 4 3 3 4 5 5 5 6 6 7 7 8 9 10 10 11 12 13 13 14 16 16 17 18 19 19 19 20 20 20 20 20 21 22 23 25 26 27 29 30 31 28 24 21 20 20 21 22 23 22 22 21 21 21 20 20 19 19
16 15 15 15 14 13 12 12 12 12 12 14 16 17 17 17 17 17 16 15 14 12 10 9 7 6 5 4 3 4 4 5 5 5 6 7 7 8 9 9 10 11 11 12 13 14 14 15 16 17 17 18 20 20 21 21 22 23 23 23 23 24 25 26 27 28 29 32 32 30 28 26 23 20 21 24 24 23 23 23 23 23 21 20 20
16 15 15 15 14 14 13 13 13 13 14 16 18 20 20 20 19 18 17 16 14 11 9 7 6 6 5 4 4 4 4 5 6 6 7 7 7 8 9 9 10 10 11 11 12 13 14 15 15 17 18 19 20 22 23 23 24 24 25 25 26 26 27 27 28 28 30 31 32 32 31 30 29 25 23 24 24 25 25 24 25 25 24 22 21
Wind_Direction
191 191 193 186 181 184 183 176 172 166 165 160 148 137 127 117 105 89 78 69 68 71 71 69 66 66 67 67 67 67 66 65 65 64 64 65 65 66 66 66 65 64 63 61 61 61 61 63 65 69 71 71 73 75 78 79 79 83 88 93 95 95 94 94 94 93 92 93 94 96 93 89 85 80 74 65 57 59 71 74 75 77 76 75 76
198 194 196 191 184 185 186 183 178 171 171 169 160 150 139 129 118 102 85 73 69 72 72 70 65 64 64 64 65 64 64 64 64 63 64 64 65 66 66 66 66 65 63 62 61 61 62 64 68 72 74 73 72 72 74 76 77 82 88 93 94 93 94 94 95 96 94 93 94 97 96 91 87 83 76 71 74 79 83 82 82 82 79 76 74
197 197 200 196 189 186 188 186 183 178 177 177 171 162 153 142 131 119 100 81 75 75 74 71 66 64 62 61 62 62 62 63 63 63 64 64 64 65 66 66 65 64 63 63 62 62 63 65 68 73 75 74 71 70 71 73 76 80 85 87 88 90 90 89 89 90 88 88 88 93 96 91 85 81 79 80 86 88 89 88 86 84 81 77 75
195 195 202 202 196 188 190 189 188 184 182 185 180 176 168 156 145 135 120 94 81 77 74 71 66 64 60 57 58 60 59 60 62 63 64 64 65 65 66 66 66 64 63 64 63 64 64 66 69 72 75 75 74 72 72 72 75 77 80 80 80 80 78 76 72 74 77 77 82 90 95 90 83 83 87 89 91 91 91 89 86 84 81 79 76
201 195 199 204 201 192 192 192 192 189 187 190 188 186 181 172 160 152 143 124 95 77 74 67 64 63 58 55 54 56 55 57 60 62 63 64 64 64 65 66 67 66 65 64 64 65 65 67 69 73 75 76 76 75 73 73 72 72 72 72 72 73 72 68 64 66 72 80 88 92 92 89 86 87 91 91 91 90 88 85 83 81 79 77 75
209 198 198 203 203 197 194 194 195 193 191 192 195 193 190 188 177 171 165 160 157 85 68 59 57 57 52 52 51 54 54 53 57 60 62 63 64 64 65 66 68 68 67 66 66 66 67 69 70 74 76 78 78 78 77 76 75 73 72 70 71 74 75 73 73 76 82 89 90 89 88 88 87 88 90 90 90 88 86 83 81 79 76 74 72
216 205 199 201 204 200 197 197 197 197 196 196 200 199 198 198 193 190 185 189 198 229 342 39 41 42 42 45 46 51 52 51 53 57 60 62 64 64 65 66 67 69 68 68 68 69 68 69 70 72 75 78 79 80 80 79 78 76 74 72 72 74 77 77 79 83 84 83 80 81 81 82 84 86 88 89 90 89 86 82 80 78 75 72 70
220 212 203 201 203 202 200 200 200 200 200 200 202 204 206 206 206 204 202 209 217 245 294 346 4 19 30 35 39 46 48 49 50 53 58 59 62 63 64 64 67 68 69 69 69 70 70 69 69 71 74 77 79 81 81 80 78 76 74 73 71 69 69 71 73 76 79 80 75 72 73 75 78 79 81 83 84 85 84 81 79 77 75 73 70
221 216 207 202 203 203 202 201 203 203 203 203 205 209 212 213 214 213 215 220 228 247 278 310 330 359 16 25 31 40 44 46 47 50 53 56 60 61 62 63 65 68 69 69 69 70 70 70 70 72 75 78 80 81 82 80 79 76 74 72 69 64 60 59 63 72 78 79 73 67 67 70 72 71 72 72 74 74 77 76 73 72 71 71 68
223 219 211 204 203 205 203 202 204 205 206 206 207 213 216 219 221 220 222 226 234 242 264 291 313 341 4 20 26 34 40 42 43 47 49 53 57 59 61 62 64 67 69 70 70 70 71 71 71 74 76 79 81 82 82 81 80 78 75 71 67 63 57 48 47 64 76 76 73 71 70 69 66 63 60 58 59 58 61 62 58 55 53 53 53
224 220 215 208 205 205 204 203 204 206 208 209 211 216 220 223 226 227 227 230 235 239 253 272 299 327 0 16 24 29 34 38 39 42 48 51 54 58 60 60 63 66 70 72 72 72 72 71 71 74 75 78 80 81 82 82 81 78 76 72 68 63 54 45 46 63 72 75 77 77 75 71 66 60 54 47 42 39 37 37 35 31 29 28 28
224 220 217 212 207 206 205 204 205 207 209 212 214 218 223 227 230 232 231 233 235 240 245 255 283 319 2 19 25 25 29 35 36 39 44 50 52 57 58 60 63 67 71 74 74 74 74 73 72 73 74 76 77 79 80 80 80 77 76 74 71 65 56 50 55 70 73 77 80 78 76 73 68 61 53 43 34 28 22 17 11 7 5 5 4
228 221 217 213 209 206 206 206 206 208 211 213 216 220 225 229 233 235 235 236 236 238 239 247 268 305 7 26 30 26 29 33 33 34 37 44 48 53 56 58 61 66 71 75 77 76 76 75 73 72 73 73 73 75 76 76 75 73 73 71 68 63 59 52 49 61 74 80 82 78 76 69 64 53 47 35 20 10 3 358 349 346 343 342 341
230 223 218 214 209 208 207 207 208 210 212 215 217 221 226 232 235 237 238 237 237 238 236 244 256 287 18 32 34 31 29 32 33 29 33 37 41 47 51 55 57 59 66 74 77 79 79 78 76 74 72 72 71 70 69 68 66 63 60 57 53 48 45 45 44 42 58 74 76 71 67 56 48 31 20 3 350 340 333 331 326 323 320 320 318
228 224 222 216 211 209 209 208 209 212 214 216 219 222 228 233 236 238 239 238 238 239 237 239 246 265 30 37 37 38 31 31 31 26 27 31 33 39 44 48 50 52 59 68 76 82 84 82 80 77 74 71 69 67 64 60 57 53 48 42 39 36 30 26 36 38 41 58 58 49 44 34 23 3 351 338 331 324 318 313 310 307 305 304 302
225 224 222 217 213 210 209 209 211 213 215 217 220 224 229 233 237 239 240 241 240 239 238 237 239 246 276 36 40 41 33 30 33 30 17 18 20 28 35 39 43 45 51 57 65 79 85 87 84 81 79 74 70 65 60 54 50 45 39 32 27 23 19 9 14 32 35 34 38 33 19 14 8 354 344 335 330 325 321 316 311 308 303 301 298
225 225 221 216 213 210 209 211 213 214 215 218 221 226 229 233 236 239 242 242 241 241 239 235 234 235 237 245 335 353 2 2 18 29 8 2 355 5 21 28 31 33 38 42 45 57 74 84 84 84 77 74 71 59 52 42 35 29 21 13 9 359 358 354 349 14 25 7 13 13 354 352 349 342 335 328 324 320 319 317 314 312 309 305 301
224 224 221 214 211 209 209 212 215 216 217 220 223 227 230 233 236 239 243 241 240 241 240 236 234 237 236 243 253 272 303 326 342 7 4 347 331 333 347 5 14 14 18 18 16 14 32 55 66 76 64 58 50 33 26 12 0 352 350 344 342 335 333 335 331 346 358 342 344 345 335 335 334 330 327 325 322 318 316 314 311 310 309 307 304
223 224 220 211 208 208 209 212 215 216 219 221 226 229 231 233 235 239 241 239 239 239 240 239 238 244 246 250 255 260 272 303 328 338 352 328 315 313 319 330 337 341 340 336 330 324 328 329 342 353 353 9 352 339 334 331 325 321 319 318 318 315 316 315 313 322 331 326 325 323 318 317 319 320 319 319 318 317 318 315 313 310 307 306 305
222 220 215 208 205 207 209 212 213 215 217 221 226 229 231 233 234 238 240 237 237 238 242 243 244 249 252 253 249 249 255 267 290 288 282 288 295 299 303 308 310 314 312 309 305 304 305 307 311 315 316 327 330 323 319 316 310 307 305 302 303 303 306 307 306 310 316 315 315 314 311 307 309 311 311 312 312 313 315 315 314 311 308 306 305
219 213 208 203 201 204 208 210 212 215 217 221 225 228 230 231 233 236 238 237 237 240 244 247 249 250 251 249 240 238 244 255 269 278 284 279 286 291 295 298 300 302 302 299 295 292 291 292 294 295 301 307 313 314 313 311 309 307 304 301 298 298 301 304 305 308 313 313 312 310 307 306 307 308 307 307 307 307 308 310 311 312 310 307 305
217 212 203 198 199 203 207 209 212 216 219 222 224 228 230 231 234 236 237 239 240 241 247 250 252 253 252 249 244 241 249 268 277 277 278 273 275 282 289 293 295 298 300 300 296 293 290 285 282 279 280 287 291 297 303 305 307 308 306 304 300 298 299 300 302 306 309 309 309 307 303 305 306 306 306 306 304 304 304 305 306 307 309 308 305
217 211 201 197 200 204 207 209 212 216 219 222 225 229 231 232 235 236 238 240 243 245 249 253 256 259 256 251 251 257 266 280 283 274 273 270 263 267 278 286 290 295 297 298 297 294 292 290 287 283 277 276 278 283 291 296 300 303 306 305 301 300 300 299 298 301 303 305 307 305 302 304 304 304 306 306 305 306 306 305 303 303 305 306 305
216 206 203 201 200 204 207 209 211 214 218 222 225 228 231 233 235 239 242 243 247 250 253 258 262 264 262 261 263 269 274 275 275 272 271 269 264 264 269 275 280 286 290 292 294 292 291 291 291 289 287 283 281 282 288 294 297 301 305 304 301 302 302 300 297 296 300 303 305 303 303 304 304 306 306 306 307 308 309 307 304 301 302 303 304
212 199 200 204 202 204 206 208 210 212 217 221 223 227 230 233 236 241 245 247 251 253 256 260 264 268 269 273 276 275 269 264 267 278 287 286 283 284 281 276 278 282 287 287 287 287 286 287 287 288 290 289 287 288 290 291 292 294 297 297 298 301 303 305 302 296 297 302 304 305 307 307 306 307 308 308 308 308 309 308 306 302 302 302 302
209 198 198 202 201 202 204 207 211 213 216 220 222 225 228 232 238 243 247 251 253 255 254 256 263 267 269 274 277 275 276 286 298 305 307 304 296 287 274 265 269 275 277 280 280 279 280 280 280 281 282 283 284 286 288 287 285 285 285 286 290 298 302 304 302 298 300 303 305 307 308 307 306 306 307 308 307 306 306 306 305 302 301 300 300
208 199 199 200 198 200 202 205 210 213 215 219 222 223 226 232 237 242 247 251 253 253 254 254 255 255 261 267 270 280 301 320 322 318 309 303 297 277 254 248 253 265 274 276 272 270 274 274 273 275 275 278 283 284 284 285 284 279 278 284 291 296 297 296 298 300 303 305 305 305 307 307 305 305 305 306 306 305 303 301 299 297 298 297 295
206 201 201 198 198 199 200 203 206 208 211 214 219 221 224 232 237 241 246 251 249 248 249 242 237 246 259 264 272 297 326 325 312 304 297 281 267 249 233 234 228 241 272 275 245 246 257 265 265 267 271 275 279 277 275 278 282 284 288 299 305 305 304 300 299 299 301 305 308 310 311 309 305 303 303 304 306 305 302 299 295 293 295 294 290
207 203 199 195 195 195 191 195 201 205 209 209 212 217 218 225 235 240 238 239 235 232 233 231 236 248 259 264 280 316 327 306 297 294 293 272 222 186 191 213 204 192 352 11 2 302 292 302 292 279 277 275 277 278 281 287 295 301 305 306 305 306 307 306 299 296 299 303 308 313 315 314 309 306 304 303 303 303 301 300 297 293 295 294 286
216 209 203 197 190 187 185 190 201 207 212 210 209 214 201 194 217 227 223 223 224 217 221 230 238 239 250 270 293 321 290 281 288 290 298 336 40 74 89 56 37 48 27 6 353 341 328 321 308 299 294 289 288 289 292 296 299 301 303 303 303 302 302 298 293 294 299 300 304 308 309 310 310 309 308 306 304 301 300 301 300 295 295 294 284
224 218 210 199 183 183 188 192 206 212 215 216 214 207 187 190 206 208 205 205 210 212 217 222 221 224 234 255 238 189 215 243 259 273 68 69 66 68 55 41 25 8 355 343 330 324 317 310 303 297 292 291 293 293 293 293 294 294 295 298 301 301 302 301 298 299 301 300 300 302 303 303 305 306 306 307 306 303 300 300 300 296 294 293 283
225 216 204 195 187 190 187 192 209 215 222 227 213 200 189 197 200 190 191 195 202 206 208 208 206 212 202 187 185 178 199 207 193 167 136 103 71 67 39 356 347 334 325 327 323 320 315 309 307 301 297 297 298 298 298 297 296 294 292 293 295 297 299 301 302 303 301 300 301 301 300 301 304 305 304 304 305 303 300 297 298 296 292 290 283
215 207 199 198 205 200 189 202 218 221 230 229 207 201 198 198 194 184 184 184 190 193 192 194 192 189 179 177 182 180 186 182 175 163 131 86 42 27 335 323 327 323 324 329 326 322 317 313 311 308 304 302 299 297 297 297 296 293 290 290 290 290 293 297 300 300 299 300 302 303 303 305 305 304 304 304 303 302 300 297 296 295 289 284 279
211 213 218 215 213 209 209 221 229 230 230 222 208 208 207 200 193 191 185 178 185 187 182 177 175 180 182 184 182 177 178 173 167 147 126 98 317 313 313 320 322 324 329 331 330 326 323 320 316 311 307 303 299 296 292 289 288 288 288 290 291 290 292 295 298 298 298 300 302 305 307 308 305 303 304 305 302 300 299 298 296 295 291 281 275
226 243 260 233 222 226 228 229 231 230 227 223 218 218 213 205 200 192 179 174 184 188 184 174 178 190 190 191 183 175 173 165 153 141 150 258 287 307 327 333 325 326 329 328 330 328 323 320 316 312 308 305 302 299 294 288 285 285 286 289 291 292 294 296 296 297 299 302 305 307 309 309 308 307 307 305 300 298 297 297 297 297 294 283 274
230 248 264 236 228 230 229 227 229 232 231 226 218 213 211 208 200 180 168 183 192 194 191 181 189 194 190 196 188 172 162 154 156 166 188 268 299 302 319 322 317 320 324 324 325 323 319 316 313 312 308 307 308 306 305 302 296 293 290 290 291 293 295 294 295 298 301 305 307 308 311 313 312 311 308 305 301 297 294 293 296 300 299 290 278
219 226 231 232 235 232 228 230 231 231 232 222 210 211 216 209 174 159 197 205 203 198 187 176 186 190 187 194 185 161 153 162 179 181 193 279 297 296 299 303 308 315 318 319 321 319 316 315 314 314 314 316 319 321 321 320 315 312 309 305 303 303 300 297 298 300 303 306 308 310 313 315 314 312 310 307 302 296 293 294 298 300 301 296 284
209 213 211 222 242 238 234 237 236 235 235 223 214 215 219 205 168 183 216 208 199 198 180 173 181 180 174 181 183 173 170 195 212 189 211 271 289 295 300 305 310 313 315 318 319 320 320 319 319 319 320 323 326 330 331 326 321 320 320 318 318 317 312 309 309 310 310 311 311 313 314 315 315 314 314 313 309 302 298 297 298 298 297 297 289
199 200 199 215 234 237 240 243 242 242 238 228 221 215 216 201 180 195 211 205 200 195 180 180 182 176 170 174 183 189 187 199 218 215 240 279 294 300 305 309 313 313 317 321 322 324 326 324 325 325 326 326 327 332 333 328 323 322 325 324 322 322 319 319 319 318 317 316 315 315 317 317 315 315 317 318 316 311 306 300 296 294 293 294 292
198 211 221 225 226 227 235 240 244 247 239 229 219 212 216 212 200 203 203 199 204 196 182 182 180 175 173 177 189 216 222 201 198 229 289 301 300 304 308 310 314 316 319 324 325 326 329 328 331 334 332 328 328 331 330 328 325 324 328 328 323 322 320 321 324 325 322 319 319 318 319 319 315 316 320 321 320 318 315 309 302 300 298 293 289
199 214 222 222 219 216 226 238 248 253 244 232 218 210 214 224 225 218 204 192 192 185 172 170 169 168 173 186 205 241 255 227 156 334 316 310 306 307 312 316 319 319 319 321 324 327 331 334 337 338 334 330 328 328 328 328 327 327 328 325 323 322 324 327 326 325 324 322 324 324 321 319 316 317 322 324 322 320 319 317 310 308 308 304 295
201 210 213 209 201 206 220 233 243 244 243 241 234 221 214 222 227 224 209 185 180 179 171 166 158 158 164 172 197 229 256 287 341 321 310 308 310 312 316 319 315 314 317 321 327 332 336 340 341 339 335 331 328 326 328 330 329 329 325 320 318 316 319 325 320 315 317 319 322 323 320 319 321 323 327 328 327 324 322 319 314 311 311 312 306
205 207 204 197 193 206 219 225 231 235 242 246 243 236 225 217 210 206 199 182 183 183 175 163 146 140 142 149 191 228 252 288 308 303 306 308 310 314 315 314 310 313 319 324 330 335 338 339 339 338 334 331 328 326 328 330 329 328 328 326 322 314 313 320 320 315 315 317 317 318 317 319 322 323 324 324 325 325 323 321 318 315 314 314 311
203 203 199 196 197 208 213 214 226 232 237 239 240 239 227 210 193 185 182 176 177 177 170 160 146 139 141 159 190 217 245 282 297 298 306 308 306 309 307 305 306 312 318 323 329 333 336 336 334 333 331 330 328 327 328 328 326 327 327 326 325 321 317 320 323 318 315 314 313 314 315 316 316 317 316 317 319 320 320 320 318 317 317 317 314
202 202 201 203 208 212 213 221 231 232 232 234 236 228 214 208 193 181 175 171 171 172 171 162 151 153 160 172 192 209 251 287 297 302 307 305 300 300 300 301 306 312 315 321 327 329 331 330 328 327 326 326 325 325 326 324 323 325 326 325 325 324 322 322 323 320 315 312 309 310 312 312 312 312 311 311 313 314 316 316 316 315 315 315 315
205 202 203 207 213 215 216 223 230 228 229 233 234 220 207 204 194 182 177 176 173 175 174 161 154 168 177 180 197 220 279 296 300 303 302 297 294 296 301 304 308 310 310 314 321 322 324 324 323 324 324 323 322 321 321 320 320 322 323 323 323 322 322 321 319 317 316 313 310 309 309 311 311 310 307 308 310 310 310 311 311 310 311 312 312
205 199 202 209 213 212 211 215 219 220 223 226 226 214 205 197 186 180 178 177 175 175 171 158 158 182 189 193 214 245 288 297 298 298 294 290 290 298 304 303 304 305 303 308 313 313 316 317 319 323 322 319 317 316 316 315 316 318 319 319 318 318 319 318 315 315 314 311 307 306 306 308 308 307 307 308 310 309 306 305 306 306 306 306 307
205 199 203 212 212 209 212 215 215 212 212 215 211 202 196 184 177 177 176 176 176 172 166 162 178 198 202 211 227 261 282 289 291 287 284 282 287 295 298 298 302 302 302 304 306 305 309 313 317 319 317 314 314 314 314 313 313 313 313 313 314 314 314 313 312 312 311 310 308 305 304 303 304 306 306 306 306 306 304 302 301 301 300 298 300
203 201 204 210 210 210 213 213 210 204 203 205 199 192 186 179 179 182 180 182 179 171 171 183 196 203 212 226 239 261 274 283 283 276 275 278 287 294 295 299 301 300 301 301 301 303 307 311 314 316 316 315 315 316 316 314 312 311 309 309 308 308 307 306 306 307 308 308 310 310 307 302 301 302 302 302 301 301 301 299 297 297 295 294 295
200 201 202 204 206 207 207 206 205 203 200 194 188 185 181 179 183 186 186 184 177 175 184 195 201 207 220 238 253 265 276 280 273 267 272 281 291 296 297 299 298 297 298 298 299 304 308 312 316 318 318 317 318 318 316 314 312 311 309 307 305 303 301 301 301 302 302 304 306 308 308 305 302 300 296 296 297 296 296 295 295 294 293 292 294
200 200 197 197 200 201 201 202 204 205 198 188 184 184 182 182 186 191 188 179 173 181 198 204 209 219 232 250 257 266 273 269 266 268 276 286 293 295 297 297 296 297 298 299 304 310 314 319 322 322 321 320 320 317 315 313 311 309 308 306 304 302 301 300 300 301 301 301 301 302 303 302 303 303 300 297 296 296 296 294 292 291 291 290 289
Height
3183 3184 3185 3185 3186 3187 3188 3188 3188 3188 3188 3189 3189 3189 3189 3188 3188 3188 3188 3188 3187 3187 3187 3186 3186 3186 3185 3184 3184 3184 3183 3182 3182 3181 3181 3180 3180 3179 3179 3178 3178 3177 3177 3176 3176 3176 3175 3175 3175 3174 3174 3174 3175 3175 3175 3174 3174 3175 3175 3174 3174 3174 3174 3173 3173 3173 3172 3172 3172 3172 3172 3172 3172 3172 3172 3172 3172 3172 3172 3171 3171 3170 3170 3170 3169
3182 3183 3184 3185 3185 3186 3187 3188 3188 3188 3188 3188 3188 3188 3188 3188 3188 3188 3188 3188 3187 3187 3187 3187 3186 3186 3186 3185 3185 3184 3184 3183 3183 3182 3182 3181 3181 3180 3180 3179 3179 3178 3178 3177 3177 3177 3176 3176 3175 3175 3175 3175 3175 3175 3175 3175 3175 3175 3175 3175 3175 3175 3175 3174 3174 3174 3173 3173 3173 3172 3172 3172 3172 3172 3172 3172 3172 3172 3172 3172 3172 3171 3171 3171 3170
3181 3182 3183 3184 3185 3185 3186 3187 3187 3187 3188 3188 3188 3188 3188 3188 3188 3188 3188 3188 3188 3187 3187 3187 3187 3186 3186 3186 3185 3185 3185 3184 3184 3183 3182 3182 3182 3181 3181 3180 3180 3179 3179 3178 3178 3178 3177 3177 3176 3176 3176 3176 3176 3176 3176 3176 3176 3176 3176 3176 3176 3176 3176 3175 3175 3175 3174 3174 3174 3173 3173 3172 3173 3173 3173 3173 3173 3173 3173 3173 3173 3172 3172 3172 3172
3179 3181 3182 3183 3184 3185 3185 3186 3187 3187 3187 3188 3188 3188 3188 3188 3188 3188 3188 3188 3188 3187 3187 3187 3187 3187 3187 3186 3186 3185 3185 3185 3184 3184 3183 3183 3182 3182 3181 3181 3181 3180 3180 3180 3179 3179 3178 3178 3177 3177 3177 3177 3177 3177 3177 3177 3177 3177 3177 3177 3177 3177 3176 3176 3176 3176 3175 3175 3175 3174 3173 3173 3173 3173 3173 3174 3174 3174 3174 3174 3174 3173 3173 3173 3173
3179 3180 3181 3182 3183 3184 3184 3185 3186 3186 3187 3187 3187 3187 3187 3187 3188 3188 3188 3188 3188 3188 3187 3187 3187 3187 3187 3187 3186 3186 3186 3185 3185 3184 3184 3184 3183 3183 3182 3182 3181 3181 3181 3181 3180 3180 3179 3179 3178 3178 3178 3177 3177 3177 3177 3177 3177 3178 3178 3178 3177 3177 3177 3177 3176 3176 3176 3176 3176 3175 3174 3173 3174 3174 3174 3174 3175 3175 3175 3175 3175 3175 3175 3174 3174
3178 3179 3180 3181 3182 3183 3184 3185 3185 3186 3186 3186 3187 3187 3187 3187 3187 3188 3188 3188 3188 3188 3188 3187 3187 3187 3187 3187 3187 3186 3186 3186 3185 3185 3185 3184 3184 3183 3183 3183 3182 3182 3182 3182 3181 3181 3180 3180 3180 3179 3179 3178 3178 3178 3178 3178 3178 3178 3178 3178 3178 3178 3178 3178 3177 3177 3177 3177 3177 3176 3175 3174 3175 3176 3176 3176 3176 3176 3176 3176 3176 3176 3176 3175 3175
3177 3178 3179 3180 3181 3182 3183 3184 3184 3185 3185 3186 3186 3186 3187 3187 3187 3187 3187 3188 3188 3188 3187 3187 3187 3187 3187 3187 3187 3187 3186 3186 3186 3185 3185 3185 3185 3184 3184 3184 3183 3183 3183 3183 3182 3182 3182 3181 3181 3180 3180 3180 3179 3179 3179 3179 3179 3179 3179 3179 3179 3179 3179 3179 3179 3178 3178 3178 3178 3178 3177 3176 3177 3177 3177 3177 3177 3177 3177 3177 3177 3176 3176 3176 3176
3176 3177 3178 3179 3180 3181 3182 3183 3184 3184 3185 3185 3185 3186 3186 3186 3187 3187 3187 3187 3187 3187 3187 3187 3187 3187 3187 3187 3187 3187 3187 3186 3186 3186 3186 3185 3185 3185 3185 3184 3184 3184 3184 3184 3183 3183 3183 3182 3182 3182 3181 3181 3181 3180 3180 3180 3180 3180 3180 3180 3180 3180 3180 3180 3180 3179 3179 3179 3179 3179 3178 3178 3179 3179 3179 3179 3178 3178 3178 3178 3177 3177 3177 3177 3176
3175 3176 3177 3177 3179 3180 3181 3182 3183 3184 3184 3184 3185 3185 3186 3186 3186 3187 3187 3187 3187 3187 3187 3187 3187 3187 3187 3187 3187 3187 3187 3187 3187 3186 3186 3186 3186 3186 3185 3185 3185 3185 3185 3185 3184 3184 3184 3183 3183 3183 3183 3182 3182 3182 3181 3181 3181 3181 3181 3181 3181 3181 3181 3181 3181 3180 3180 3179 3179 3179 3179 3180 3181 3181 3181 3180 3180 3180 3179 3179 3179 3178 3178 3177 3177
3174 3174 3175 3176 3177 3179 3180 3181 3182 3183 3183 3184 3184 3184 3185 3185 3186 3186 3186 3186 3187 3187 3187 3187 3187 3187 3187 3187 3187 3187 3187 3187 3187 3187 3187 3186 3186 3186 3186 3186 3186 3186 3185 3185 3185 3185 3185 3185 3185 3184 3184 3184 3183 3183 3183 3182 3182 3182 3182 3182 3182 3182 3182 3182 3182 3181 3181 3179 3179 3179 3180 3181 3182 3182 3182 3182 3181 3181 3180 3180 3180 3179 3179 3179 3178
3172 3173 3173 3175 3176 3177 3179 3180 3181 3182 3182 3183 3183 3184 3184 3185 3185 3185 3186 3186 3186 3187 3187 3187 3187 3187 3187 3187 3187 3187 3187 3187 3187 3187 3187 3187 3187 3187 3187 3187 3187 3186 3186 3186 3186 3186 3186 3186 3186 3186 3185 3185 3185 3184 3184 3184 3183 3183 3183 3183 3183 3183 3183 3183 3183 3182 3181 3180 3180 3181 3181 3182 3182 3182 3183 3182 3182 3182 3181 3181 3181 3180 3180 3179 3179
3171 3171 3172 3173 3174 3175 3177 3178 3179 3180 3181 3182 3182 3183 3183 3184 3184 3185 3185 3185 3186 3186 3186 3187 3187 3187 3187 3187 3187 3187 3187 3188 3188 3187 3187 3187 3187 3187 3187 3187 3187 3187 3187 3187 3187 3187 3187 3187 3187 3187 3187 3186 3186 3186 3185 3185 3185 3184 3184 3184 3184 3184 3184 3184 3184 3183 3182 3181 3182 3182 3182 3183 3183 3183 3183 3183 3183 3182 3182 3182 3181 3181 3181 3180 3180
3169 3169 3170 3171 3172 3174 3175 3176 3178 3179 3180 3181 3181 3182 3183 3183 3184 3184 3184 3185 3185 3186 3186 3186 3186 3186 3186 3187 3187 3187 3188 3188 3188 3187 3187 3187 3187 3187 3188 3188 3188 3188 3188 3188 3188 3188 3188 3188 3188 3188 3188 3187 3187 3187 3186 3186 3186 3185 3185 3185 3185 3184 3184 3184 3185 3184 3183 3182 3183 3183 3183 3183 3183 3183 3183 3183 3183 3183 3183 3182 3182 3181 3181 3180 3180
3167 3168 3169 3169 3170 3172 3173 3175 3176 3177 3178 3179 3180 3181 3182 3182 3183 3183 3184 3184 3185 3185 3186 3186 3186 3186 3186 3187 3187 3187 3187 3188 3188 3187 3187 3187 3187 3188 3188 3188 3188 3188 3188 3188 3188 3188 3188 3189 3189 3189 3188 3188 3188 3188 3187 3187 3186 3186 3186 3186 3185 3185 3185 3185 3185 3185 3183 3183 3184 3184 3184 3184 3184 3184 3183 3183 3183 3183 3183 3182 3182 3181 3181 3180 3180
3165 3166 3167 3167 3169 3170 3171 3173 3174 3176 3177 3178 3179 3180 3181 3181 3182 3182 3183 3184 3184 3185 3185 3185 3185 3186 3186 3186 3187 3187 3187 3187 3187 3187 3187 3187 3188 3188 3188 3188 3188 3188 3188 3188 3189 3189 3189 3189 3189 3189 3189 3189 3188 3188 3188 3187 3187 3187 3186 3186 3186 3185 3185 3185 3185 3185 3184 3184 3184 3184 3184 3184 3184 3184 3183 3183 3183 3183 3182 3182 3182 3181 3181 3180 3180
3163 3164 3164 3165 3167 3168 3170 3171 3173 3174 3176 3177 3178 3179 3180 3180 3181 3182 3182 3183 3184 3184 3184 3185 3185 3185 3186 3186 3186 3187 3187 3187 3187 3187 3187 3187 3187 3188 3188 3188 3188 3189 3189 3189 3189 3189 3189 3189 3189 3189 3189 3189 3189 3189 3188 3188 3188 3187 3187 3186 3186 3186 3185 3185 3185 3185 3185 3184 3184 3184 3184 3184 3184 3184 3183 3183 3183 3182 3182 3181 3181 3181 3180 3179 3179
3160 3161 3162 3163 3165 3167 3169 3170 3172 3173 3174 3175 3177 3178 3179 3180 3180 3181 3182 3182 3183 3184 3184 3184 3184 3185 3186 3186 3186 3186 3187 3187 3187 3187 3187 3187 3187 3188 3188 3188 3188 3189 3189 3189 3189 3189 3189 3189 3189 3189 3189 3189 3189 3189 3189 3188 3188 3188 3187 3187 3187 3186 3186 3185 3185 3185 3186 3185 3185 3185 3184 3184 3184 3183 3183 3183 3182 3182 3181 3181 3180 3180 3179 3179 3178
3157 3158 3160 3162 3163 3165 3167 3169 3170 3172 3173 3174 3176 3177 3178 3179 3180 3180 3181 3182 3182 3183 3183 3184 3184 3185 3185 3186 3186 3186 3187 3187 3187 3187 3187 3187 3187 3187 3188 3188 3188 3188 3189 3189 3189 3189 3189 3189 3189 3189 3189 3189 3189 3189 3189 3189 3188 3188 3188 3187 3187 3186 3186 3185 3184 3185 3186 3185 3185 3184 3184 3184 3183 3183 3183 3182 3182 3182 3181 3180 3180 3179 3179 3178 3177
3156 3157 3158 3160 3162 3164 3166 3167 3169 3171 3172 3174 3175 3176 3177 3178 3179 3180 3180 3181 3182 3182 3183 3183 3184 3185 3185 3185 3186 3186 3186 3187 3187 3187 3187 3187 3187 3187 3187 3188 3188 3188 3188 3189 3189 3189 3189 3189 3189 3189 3189 3189 3189 3189 3189 3189 3188 3188 3188 3187 3187 3186 3186 3185 3184 3185 3185 3185 3184 3184 3184 3183 3183 3183 3182 3182 3182 3181 3180 3180 3179 3179 3178 3177 3177
3154 3155 3157 3158 3160 3163 3164 3166 3168 3170 3171 3173 3174 3175 3176 3177 3178 3179 3180 3180 3181 3181 3182 3183 3184 3184 3185 3185 3186 3186 3186 3187 3187 3187 3187 3187 3187 3187 3187 3187 3188 3188 3188 3188 3188 3188 3189 3189 3189 3189 3189 3189 3189 3189 3188 3188 3188 3188 3187 3187 3186 3186 3185 3184 3183 3184 3184 3184 3184 3183 3183 3182 3182 3182 3181 3181 3181 3180 3180 3179 3178 3178 3177 3176 3176
3152 3154 3155 3156 3159 3161 3163 3165 3166 3169 3170 3171 3172 3173 3174 3175 3177 3178 3179 3180 3180 3181 3181 3182 3183 3184 3184 3185 3185 3186 3186 3187 3187 3187 3187 3187 3187 3187 3187 3187 3187 3187 3188 3188 3188 3188 3188 3188 3188 3188 3188 3188 3188 3188 3188 3188 3187 3187 3187 3186 3186 3185 3185 3183 3182 3182 3183 3183 3183 3182 3181 3181 3181 3181 3180 3180 3180 3179 3179 3178 3177 3177 3176 3175 3175
3151 3152 3153 3155 3157 3159 3161 3164 3165 3167 3168 3169 3171 3171 3173 3174 3176 3177 3178 3179 3180 3180 3181 3182 3183 3183 3184 3184 3185 3186 3186 3186 3187 3187 3187 3187 3187 3187 3187 3187 3187 3187 3187 3187 3187 3188 3188 3188 3188 3188 3188 3188 3188 3188 3187 3187 3187 3186 3186 3185 3185 3185 3184 3183 3181 3180 3181 3181 3181 3181 3180 3180 3180 3180 3179 3179 3179 3178 3177 3177 3176 3176 3175 3174 3173
3150 3151 3152 3154 3156 3158 3160 3162 3163 3165 3166 3167 3169 3170 3172 3173 3175 3176 3177 3178 3179 3180 3181 3181 3182 3183 3183 3184 3185 3186 3186 3187 3187 3187 3187 3187 3187 3187 3187 3187 3187 3187 3187 3187 3187 3187 3187 3187 3187 3187 3187 3187 3187 3187 3187 3186 3186 3186 3185 3184 3184 3184 3183 3183 3181 3180 3179 3180 3180 3180 3179 3179 3179 3178 3178 3177 3177 3177 3176 3176 3175 3174 3173 3172 3172
3150 3151 3151 3153 3155 3157 3158 3160 3161 3163 3164 3166 3168 3169 3171 3172 3174 3175 3177 3178 3178 3179 3180 3181 3182 3182 3183 3184 3185 3185 3186 3187 3186 3186 3186 3186 3187 3187 3187 3187 3187 3187 3187 3186 3186 3186 3186 3186 3186 3186 3186 3186 3186 3185 3185 3185 3185 3185 3184 3184 3183 3182 3182 3182 3181 3179 3178 3178 3178 3178 3178 3177 3177 3177 3176 3176 3175 3175 3175 3174 3174 3173 3172 3171 3170
3150 3151 3151 3152 3154 3155 3156 3158 3159 3161 3163 3164 3166 3168 3170 3171 3173 3174 3176 3177 3178 3179 3180 3181 3181 3182 3183 3183 3184 3185 3186 3187 3186 3186 3186 3186 3187 3187 3187 3187 3186 3187 3186 3186 3186 3186 3185 3185 3185 3185 3185 3185 3184 3184 3184 3184 3184 3184 3183 3182 3181 3181 3180 3180 3179 3178 3177 3177 3177 3177 3176 3176 3175 3175 3175 3174 3174 3173 3173 3172 3171 3171 3171 3170 3169
3150 3151 3151 3152 3153 3154 3156 3157 3158 3160 3161 3163 3165 3167 3169 3170 3172 3174 3175 3176 3177 3178 3179 3180 3180 3181 3182 3182 3183 3184 3185 3186 3185 3186 3186 3186 3186 3186 3186 3186 3186 3186 3186 3186 3185 3185 3184 3184 3184 3184 3184 3183 3183 3183 3183 3182 3182 3182 3182 3181 3180 3179 3179 3178 3177 3176 3175 3175 3175 3175 3175 3174 3174 3173 3173 3172 3172 3171 3171 3170 3169 3169 3169 3168 3167
3150 3151 3150 3151 3152 3154 3155 3156 3158 3159 3161 3163 3164 3166 3168 3170 3172 3173 3175 3176 3176 3177 3178 3179 3180 3180 3181 3182 3183 3184 3185 3184 3184 3185 3185 3185 3185 3185 3186 3185 3185 3185 3185 3185 3184 3184 3183 3183 3183 3183 3182 3182 3182 3182 3181 3181 3180 3180 3180 3179 3178 3178 3178 3177 3176 3175 3173 3173 3173 3173 3173 3172 3172 3171 3171 3170 3170 3169 3168 3168 3167 3166 3166 3166 3165
3150 3150 3150 3151 3151 3153 3154 3156 3158 3159 3161 3163 3164 3166 3168 3170 3171 3173 3174 3175 3176 3177 3177 3178 3179 3179 3180 3181 3182 3183 3184 3183 3183 3184 3184 3184 3185 3185 3185 3185 3185 3184 3184 3184 3184 3183 3183 3183 3182 3182 3181 3181 3181 3180 3180 3179 3179 3178 3177 3177 3176 3175 3175 3175 3174 3173 3172 3171 3171 3171 3171 3170 3170 3169 3168 3168 3167 3166 3166 3165 3165 3164 3163 3163 3163
3150 3149 3149 3149 3150 3151 3153 3156 3158 3159 3161 3162 3164 3166 3168 3170 3170 3172 3173 3174 3175 3176 3176 3177 3178 3178 3179 3181 3182 3183 3183 3182 3183 3183 3183 3183 3184 3184 3184 3184 3184 3184 3184 3183 3183 3183 3182 3182 3181 3181 3180 3180 3180 3179 3178 3178 3177 3176 3175 3175 3174 3173 3173 3172 3172 3172 3171 3170 3169 3169 3169 3168 3168 3167 3166 3166 3165 3164 3163 3163 3162 3161 3160 3160 3160
3152 3151 3150 3149 3150 3152 3153 3156 3158 3159 3161 3162 3164 3166 3168 3169 3170 3171 3172 3173 3174 3175 3175 3176 3177 3178 3179 3180 3181 3182 3183 3182 3182 3182 3182 3182 3183 3183 3183 3183 3183 3183 3183 3183 3183 3182 3182 3181 3181 3180 3180 3179 3179 3178 3177 3177 3176 3175 3174 3173 3173 3172 3171 3171 3171 3171 3170 3169 3168 3168 3167 3166 3166 3165 3164 3164 3163 3162 3161 3160 3159 3159 3158 3158 3158
3153 3154 3154 3152 3153 3155 3155 3157 3158 3159 3161 3162 3164 3166 3167 3168 3169 3170 3171 3172 3173 3173 3174 3175 3176 3177 3178 3180 3181 3182 3182 3182 3182 3181 3182 3182 3182 3182 3182 3183 3183 3183 3183 3183 3182 3182 3181 3181 3180 3180 3179 3178 3178 3177 3176 3176 3175 3174 3173 3172 3171 3170 3170 3169 3169 3169 3168 3167 3167 3166 3166 3165 3164 3163 3162 3161 3160 3159 3158 3158 3157 3156 3156 3155 3155
3153 3155 3156 3156 3157 3157 3158 3159 3159 3160 3161 3163 3164 3164 3165 3167 3167 3169 3170 3171 3171 3173 3174 3175 3176 3177 3178 3179 3180 3181 3182 3182 3181 3181 3181 3182 3182 3182 3182 3183 3183 3182 3182 3182 3182 3181 3181 3180 3180 3179 3178 3178 3177 3176 3175 3175 3174 3173 3172 3172 3171 3170 3168 3167 3167 3167 3166 3165 3164 3164 3164 3163 3162 3161 3160 3159 3158 3157 3156 3156 3155 3154 3154 3153 3153
3153 3155 3156 3158 3160 3160 3161 3160 3160 3161 3163 3164 3164 3164 3165 3166 3166 3168 3169 3170 3171 3172 3173 3174 3175 3176 3178 3179 3179 3180 3181 3181 3181 3181 3182 3182 3182 3182 3182 3182 3182 3182 3181 3181 3181 3180 3180 3179 3179 3178 3177 3177 3176 3175 3174 3173 3173 3172 3172 3171 3170 3169 3168 3166 3165 3164 3164 3163 3163 3162 3161 3161 3160 3159 3158 3157 3156 3155 3155 3154 3153 3152 3151 3151 3150
3154 3157 3159 3161 3162 3162 3163 3162 3162 3163 3164 3164 3164 3164 3165 3165 3166 3167 3168 3169 3170 3171 3172 3174 3175 3176 3178 3179 3179 3180 3180 3181 3181 3181 3182 3182 3182 3182 3182 3182 3181 3181 3180 3180 3180 3180 3179 3178 3178 3177 3176 3176 3175 3174 3173 3172 3172 3171 3170 3170 3169 3168 3167 3166 3164 3163 3162 3161 3161 3160 3159 3159 3158 3157 3156 3155 3154 3153 3153 3152 3151 3150 3149 3149 3148
3156 3159 3161 3163 3163 3162 3163 3163 3164 3164 3165 3165 3165 3165 3165 3165 3166 3167 3168 3169 3170 3170 3172 3174 3176 3177 3177 3178 3177 3177 3179 3180 3181 3181 3182 3182 3182 3182 3182 3181 3181 3180 3180 3180 3179 3179 3178 3177 3177 3176 3175 3174 3173 3172 3171 3171 3170 3170 3169 3168 3167 3166 3165 3164 3163 3161 3160 3159 3159 3158 3157 3157 3156 3155 3154 3153 3152 3151 3151 3150 3149 3148 3147 3147 3146
3155 3157 3160 3161 3161 3162 3162 3163 3164 3164 3165 3165 3166 3165 3165 3165 3166 3167 3169 3169 3170 3170 3171 3173 3175 3176 3176 3176 3174 3176 3178 3180 3181 3181 3182 3182 3182 3182 3181 3181 3180 3180 3180 3179 3179 3178 3177 3176 3176 3175 3174 3173 3172 3170 3169 3169 3168 3168 3167 3166 3166 3165 3163 3162 3161 3160 3159 3158 3157 3156 3155 3154 3153 3153 3152 3151 3150 3149 3149 3148 3147 3146 3146 3145 3144
3153 3154 3157 3159 3161 3162 3162 3162 3163 3163 3164 3165 3165 3164 3163 3164 3166 3167 3168 3168 3169 3169 3170 3172 3173 3174 3175 3175 3176 3178 3179 3179 3181 3182 3182 3182 3182 3181 3181 3181 3180 3180 3179 3179 3178 3177 3176 3176 3175 3173 3172 3171 3170 3169 3168 3167 3167 3166 3165 3164 3163 3162 3161 3160 3159 3159 3158 3156 3155 3154 3153 3152 3151 3151 3150 3149 3149 3148 3147 3146 3146 3145 3144 3143 3142
3153 3155 3157 3160 3162 3162 3162 3162 3162 3162 3163 3163 3163 3162 3162 3164 3165 3166 3166 3167 3168 3169 3170 3171 3172 3173 3175 3175 3177 3178 3178 3179 3181 3182 3182 3182 3181 3181 3181 3181 3180 3179 3179 3178 3177 3176 3175 3174 3173 3172 3171 3170 3169 3168 3167 3166 3165 3164 3163 3162 3161 3160 3159 3159 3158 3157 3156 3155 3154 3153 3152 3151 3150 3149 3148 3148 3147 3146 3145 3144 3144 3143 3142 3141 3140
3153 3155 3157 3159 3160 3161 3162 3162 3161 3161 3162 3162 3161 3161 3161 3163 3164 3165 3165 3166 3167 3168 3169 3170 3171 3172 3174 3175 3176 3177 3179 3180 3180 3181 3181 3181 3181 3181 3180 3180 3179 3178 3178 3177 3176 3175 3174 3173 3172 3171 3170 3169 3168 3167 3166 3165 3164 3163 3162 3161 3160 3159 3158 3157 3157 3156 3155 3154 3153 3152 3151 3149 3148 3147 3147 3146 3145 3144 3143 3142 3142 3141 3140 3139 3138
3152 3154 3155 3156 3158 3160 3161 3161 3160 3160 3161 3161 3160 3159 3160 3162 3163 3165 3166 3166 3167 3167 3168 3168 3170 3172 3173 3175 3176 3177 3179 3180 3180 3180 3181 3181 3181 3180 3180 3179 3178 3178 3177 3176 3176 3175 3174 3173 3171 3171 3170 3168 3167 3167 3165 3164 3163 3162 3161 3160 3158 3158 3157 3156 3155 3154 3153 3152 3152 3150 3149 3148 3146 3146 3146 3145 3143 3142 3141 3140 3139 3138 3138 3137 3136
3150 3151 3153 3154 3156 3158 3158 3158 3159 3159 3159 3160 3159 3159 3160 3161 3162 3164 3165 3166 3167 3168 3168 3168 3169 3170 3172 3174 3175 3176 3178 3179 3179 3179 3179 3179 3179 3179 3178 3178 3177 3177 3176 3176 3175 3174 3173 3172 3171 3170 3170 3169 3167 3166 3165 3164 3163 3161 3160 3159 3157 3156 3155 3155 3154 3153 3152 3151 3150 3149 3148 3146 3145 3144 3144 3143 3142 3141 3140 3139 3137 3136 3136 3135 3134
3148 3149 3151 3152 3154 3155 3155 3156 3157 3157 3157 3158 3158 3159 3160 3161 3161 3163 3164 3165 3166 3167 3167 3168 3169 3169 3171 3173 3174 3176 3177 3177 3177 3177 3178 3178 3178 3178 3178 3177 3177 3176 3176 3175 3175 3174 3173 3172 3171 3170 3169 3168 3167 3166 3165 3164 3162 3161 3160 3159 3157 3156 3154 3154 3153 3152 3151 3149 3148 3147 3146 3145 3143 3142 3142 3141 3141 3139 3138 3137 3136 3135 3134 3134 3132
3145 3147 3149 3151 3152 3152 3153 3155 3156 3156 3156 3156 3157 3158 3159 3160 3161 3162 3163 3164 3165 3166 3167 3167 3168 3169 3170 3171 3172 3175 3176 3176 3176 3176 3176 3177 3177 3177 3177 3176 3176 3175 3175 3174 3174 3173 3172 3171 3170 3170 3169 3168 3166 3165 3164 3163 3161 3160 3159 3158 3157 3155 3153 3153 3152 3150 3149 3148 3147 3146 3145 3143 3142 3141 3140 3139 3139 3138 3137 3136 3135 3133 3133 3132 3131
3143 3145 3147 3148 3150 3151 3152 3154 3155 3155 3155 3155 3155 3156 3158 3159 3160 3162 3162 3163 3164 3164 3166 3167 3168 3169 3170 3171 3173 3174 3175 3174 3175 3175 3175 3176 3176 3176 3176 3175 3175 3175 3174 3174 3173 3172 3171 3170 3169 3169 3168 3167 3166 3164 3163 3162 3160 3158 3157 3156 3155 3153 3152 3151 3151 3149 3148 3147 3145 3144 3143 3142 3141 3139 3138 3137 3136 3136 3135 3134 3133 3132 3131 3130 3129
3141 3143 3145 3146 3148 3149 3151 3153 3153 3154 3154 3154 3154 3155 3157 3158 3160 3162 3162 3163 3163 3163 3164 3166 3167 3169 3170 3172 3173 3173 3173 3174 3174 3174 3175 3175 3175 3175 3175 3175 3174 3174 3173 3173 3172 3171 3170 3169 3168 3168 3167 3166 3165 3164 3162 3160 3158 3157 3155 3153 3152 3151 3149 3149 3148 3148 3147 3145 3144 3143 3142 3141 3140 3138 3137 3135 3134 3133 3133 3132 3131 3130 3129 3128 3127
3140 3142 3143 3144 3146 3148 3150 3150 3151 3152 3152 3152 3153 3154 3156 3157 3159 3162 3163 3163 3163 3163 3164 3165 3167 3168 3169 3170 3171 3172 3172 3173 3173 3174 3174 3175 3175 3175 3174 3174 3174 3173 3172 3172 3171 3170 3169 3168 3167 3166 3165 3165 3164 3163 3161 3159 3157 3155 3153 3151 3149 3147 3146 3145 3145 3145 3146 3144 3142 3141 3140 3139 3138 3137 3136 3134 3133 3131 3130 3129 3128 3127 3126 3126 3125
3139 3140 3141 3143 3145 3147 3148 3149 3150 3151 3151 3152 3152 3153 3155 3157 3159 3160 3162 3163 3163 3164 3164 3165 3166 3167 3168 3169 3170 3171 3172 3173 3173 3173 3174 3174 3174 3174 3173 3173 3173 3172 3171 3170 3170 3169 3168 3167 3166 3165 3164 3163 3162 3161 3160 3158 3156 3154 3152 3150 3148 3146 3144 3142 3140 3140 3141 3142 3141 3139 3138 3137 3136 3135 3134 3133 3131 3130 3129 3128 3126 3125 3124 3123 3122
3138 3139 3140 3142 3143 3145 3146 3147 3148 3149 3150 3151 3152 3152 3154 3156 3158 3159 3160 3161 3162 3163 3163 3164 3165 3166 3168 3169 3170 3171 3171 3172 3172 3173 3173 3173 3173 3173 3172 3172 3171 3171 3170 3169 3169 3167 3166 3166 3165 3164 3163 3161 3160 3159 3158 3157 3155 3153 3151 3149 3147 3145 3142 3140 3138 3136 3135 3136 3138 3138 3136 3135 3134 3132 3131 3131 3130 3128 3127 3126 3125 3123 3122 3121 3119
3137 3138 3139 3141 3142 3143 3145 3146 3147 3148 3150 3151 3151 3152 3154 3156 3157 3158 3159 3160 3161 3162 3162 3163 3165 3166 3167 3168 3169 3170 3171 3171 3172 3172 3172 3172 3172 3171 3171 3171 3170 3169 3169 3168 3167 3166 3165 3164 3163 3162 3161 3160 3158 3157 3156 3154 3153 3152 3150 3148 3146 3144 3141 3138 3136 3134 3132 3130 3131 3133 3133 3132 3132 3131 3129 3127 3127 3126 3125 3123 3122 3121 3119 3118 3117
3135 3136 3138 3139 3140 3142 3143 3145 3146 3148 3149 3150 3151 3152 3153 3155 3156 3157 3158 3159 3160 3161 3162 3164 3165 3166 3167 3167 3168 3169 3170 3170 3170 3170 3170 3170 3170 3170 3170 3169 3169 3168 3168 3167 3166 3165 3164 3163 3162 3161 3160 3158 3156 3155 3153 3152 3150 3149 3147 3146 3144 3142 3140 3137 3135 3133 3130 3128 3126 3126 3127 3127 3127 3128 3127 3125 3124 3123 3122 3121 3119 3118 3117 3116 3115
3134 3135 3137 3138 3139 3140 3142 3143 3145 3146 3147 3149 3150 3151 3153 3155 3156 3157 3158 3159 3160 3161 3162 3164 3165 3165 3166 3166 3167 3168 3169 3169 3169 3169 3169 3169 3169 3168 3168 3168 3167 3167 3166 3165 3164 3164 3163 3162 3161 3159 3158 3157 3155 3153 3151 3150 3148 3146 3144 3142 3140 3138 3136 3135 3133 3131 3129 3127 3124 3123 3123 3122 3122 3123 3123 3122 3121 3120 3118 3118 3116 3114 3114 3113 3112